Overview Statistics Trail Chart Weather Telemetry Raw packets
 

This is the latest recevied weather packets stored in our database for station/object KC3JUG-13. If no packets are shown the sender has not sent any weather packets the latest 10 day(s).

<< 1 2 3 4 >>
Time Temp. Humidity Pressure Rain* Wind** Luminosity Snow
1788631342 23.89° C 70% 1013.1 hPa 0 mm - - -
1788630562 23.89° C 68% 1013.3 hPa 0 mm - - -
1788629782 23.89° C 68% 1013.4 hPa 0 mm - - -
1788629002 23.89° C 68% 1013.4 hPa 0 mm - - -
1788628222 23.33° C 70% 1013.6 hPa 0 mm - - -
1788627442 23.33° C 71% 1013.6 hPa 0 mm - - -
1788626662 23.33° C 71% 1013.7 hPa 0 mm - - -
1788625882 23.33° C 72% 1013.8 hPa 0 mm - - -
1788625102 22.78° C 74% 1014 hPa 0 mm - - -
1788624385 22.78° C 73% 1014.1 hPa 0 mm - - -
1788624354 22.78° C 73% 1014.1 hPa 0 mm - - -
1788624322 22.78° C 73% 1014.1 hPa 0 mm - - -
1788623542 22.78° C 74% 1014.1 hPa 0 mm - - -
1788622762 22.78° C 76% 1014.2 hPa 0 mm - - -
1788621982 22.22° C 75% 1014.2 hPa 0 mm - - -
1788621202 22.22° C 77% 1014.1 hPa 0 mm - - -
1788620422 22.22° C 77% 1014 hPa 0 mm - - -
1788619642 21.67° C 80% 1013.9 hPa 0 mm - - -
1788618862 21.67° C 81% 1013.9 hPa 0 mm - - -
1788618082 21.67° C 82% 1014 hPa 0 mm - - -
1788617302 21.11° C 83% 1013.9 hPa 0 mm - - -
1788616522 21.11° C 84% 1014 hPa 0 mm - - -
1788615742 21.11° C 85% 1013.9 hPa 0 mm - - -
1788614962 20.56° C 85% 1013.8 hPa 0 mm - - -
1788614182 20.56° C 85% 1013.7 hPa 0 mm - - -

* Rain latest hour (hover to see other rain measurements)
** Current wind speed in m/s (hover to see current wind gust speed)